SCOUT A DEB, 2702

Orbit data source: Space-Track

SCOUT A DEB, 2702 is space debris in LEO originally from a launch on Thu, 18 Aug 1966 UTC launched from the Air Force Western Test Range (AFWTR). Debris objects in space refer to the collection of defunct objects orbiting the Earth. Examples of debris include non-operational satellites, rocket bodies, and fragments generated from explosions, collisions, or faulty payload assembly.

Loading next visibility...
Identifier
2702, 1966-076D
Orbit
LEO
Country
Flag of USUS
Related business
Manufacturer
Unknown
Mission
Spacecraft
Bus & Motor
Unknown
Mass
Unknown
Launch date (UTC)
1966-08-18 (59 years ago)
Launch vehicle
Unknown
Launch site
Air Force Western Test Range (AFWTR)
Object type
Payload
Rocket body
Debris
Shape & HBR
Unknown
Radar Cross Section
Small (<0.1 m²)

Expand to show TLE details & history
Last TLE update: 1 week ago

TLE from 1 week ago
0 SCOUT A DEB
1 02702U 66076D   25251.10398745  .00000131  00000-0  22569-3 0  9990
2 02702  88.5636 297.8463 0087475 351.6725  69.1563 13.36488261858652
Epoch: 2025-09-08T02:29Z
TLE epoch observation values (Epoch: 2025-09-08T02:29:44.515Z)
Latitude
61.82282°
Longitude
-84.33385°
Altitude
1,110.204 km
Speed
7.314 km/s
True Right ascension
20h 02m 03s
True Declination
61° 41' 10"
Sunlit
Object was in daylight at epoch
Visualization orbit readout
Latitude
Unknown
Longitude
Unknown
Altitude
Unknown
Speed
Unknown
Apparent Right ascension
Unknown
Apparent Declination
Unknown
Sunlit
N/A
Visualization observer readout
Local Sidereal Time
09:34:21
Azimuth
Unknown
Elevation
Unknown
Doppler factor
Unknown
Orbital elements
Apogee altitude
1,185.049 km
Perigee altitude
1,053.879 km
Semi-major axis
7,497.601 km
Eccentricity
0.00875
Inclination
88.5636°
RAAN
297.8463°
Arg. of periapsis
351.6725°
True anomaly
70.0967°
Mean anomaly
69.1563°
Eccentric anomaly
69.62614°
Mean motion
3.34318 °/min
Orbital period
107.68 mins
BSTAR
0.00022569
Loading maneuver chart data...
Computing Atmospheric mass density...
Loading historical data...
Loading historical data...
Loading historical data...
Loading historical data...
Loading historical data...
Loading historical data...
Loading historical data...

Documentation

Showing up to 5 results
|